User: anonymous   Login
Location: Unspecified
(0.0000°N, 0.0000°E)
Time: 04:17:03
(UTC+00:00)
Language:

OBJECT F - Orbit

View from above orbital plane
View from above orbital plane
View from above satellite
View from above satellite

Ground track
Ground track

The orbit is defined by the following mean orbital elements,

1 57585U          26145.59543860 +.00000000 +00000-0 +42031-3 0 00004
2 57585  97.4192 231.1747 0004681 305.9749  54.1065 15.44061546    02
Epoch (UTC): 25 May 2026 14:17:25
Eccentricity: 0.0004681
inclination: 97.4192°
perigee height: 431 km
apogee height: 437 km
right ascension of ascending node: 231.1747°
argument of perigee: 305.9749°
revolutions per day: 15.44061546
mean anomaly at epoch: 54.1065°

The dashed part of the orbit path shows where the satellite is in the earth's shadow,  

DLR